Grand Prairie, TX

4:22 AM CDT on March 23, 2017 (GMT -0500)
Grand Prairie Municipal

Weather History for KGPM - February, 2014

Change the Weather History Date:

Thursday, February 13, 2014

  Actual Average (KRBD) Record (KRBD)
Temperature  
Mean Temperature 47 °F -  
Max Temperature 64 °F 58 °F 75 °F (2000)
Min Temperature 30 °F 39 °F 26 °F (2004)
Degree Days  
Heating Degree Days 18    
Moisture  
Dew Point 32 °F    
Average Humidity 70    
Maximum Humidity 93    
Minimum Humidity 32    
Precipitation  
Precipitation 0.00 in - - ()
Sea Level Pressure  
Sea Level Pressure 30.00 in    
Wind  
Wind Speed 3 mph (South)    
Max Wind Speed 13 mph    
Max Gust Speed 21 mph    
Visibility 10 miles    
Events      
Averages and records for this station are not official NWS values.
T = Trace of Precipitation, MM = Missing Value Source: NWS Daily Summary

Daily Weather History Graph

Daily Weather History Graph

Search for Another Location

Airport or City:

Trip Planner

Search our weather history database for the weather conditions in past years. The results will help you decide how hot, cold, wet, or windy it might be!

Date:

Astronomy

Feb. 13, 2014 Rise Set
Actual Time 7:13 AM CST 6:12 PM CST
Civil Twilight 6:47 AM CST 6:37 PM CST
Nautical Twilight 6:18 AM CST 7:06 PM CST
Astronomical Twilight 5:50 AM CST 7:35 PM CST
Moon 5:21 PM CST (2/13) 6:06 AM CST (2/13)
Length of Visible Light 11h 49m
Length of Day
10h 58m
Waxing Gibbous, 99% of the Moon is Illuminated
Feb 13
Waxing Gibbous
Feb 14
Full
Feb 22
Last Quarter
Mar 1
New
Mar 8
First Quarter

Hourly Weather History & Observations

Time (CST) Temp. Windchill Dew Point Humidity Pressure Visibility Wind Dir Wind Speed Gust Speed Precip Events Conditions
12:15 AM 35.6 °F - 30.2 °F 81% 30.08 in 10.0 mi Calm Calm - N/A   Clear
12:35 AM 33.8 °F - 30.2 °F 87% 30.08 in 10.0 mi Calm Calm - N/A   Clear
12:55 AM 33.8 °F 30.8 °F 30.2 °F 87% 30.07 in 10.0 mi SW 3.5 mph - N/A   Clear
1:15 AM 33.8 °F - 30.2 °F 87% 30.08 in 10.0 mi Calm Calm - N/A   Clear
1:35 AM 32.0 °F - 30.2 °F 93% 30.08 in 10.0 mi Calm Calm - N/A   Clear
1:55 AM 32.0 °F - 30.2 °F 93% 30.07 in 10.0 mi Calm Calm - N/A   Clear
2:15 AM 32.0 °F - 28.4 °F 87% 30.07 in 10.0 mi Calm Calm - N/A   Clear
2:35 AM 32.0 °F - 30.2 °F 93% 30.06 in 10.0 mi Calm Calm - N/A   Clear
2:55 AM 32.0 °F - 30.2 °F 93% 30.07 in 10.0 mi Calm Calm - N/A   Clear
3:15 AM 32.0 °F - 28.4 °F 87% 30.07 in 10.0 mi Calm Calm - N/A   Clear
3:35 AM 30.2 °F - 26.6 °F 86% 30.05 in 7.0 mi Calm Calm - N/A   Clear
3:55 AM 32.0 °F - 30.2 °F 93% 30.04 in 7.0 mi Calm Calm - N/A   Clear
4:15 AM 32.0 °F 27.5 °F 30.2 °F 93% 30.04 in 10.0 mi South 4.6 mph - N/A   Clear
4:35 AM 32.0 °F - 30.2 °F 93% 30.03 in 7.0 mi Calm Calm - N/A   Clear
4:55 AM 32.0 °F 27.5 °F 30.2 °F 93% 30.04 in 10.0 mi SW 4.6 mph - N/A   Clear
5:15 AM 32.0 °F - 30.2 °F 93% 30.03 in 7.0 mi Calm Calm - N/A   Clear
5:35 AM 32.0 °F 26.4 °F 30.2 °F 93% 30.03 in 10.0 mi South 5.8 mph - N/A   Clear
5:55 AM 32.0 °F 27.5 °F 30.2 °F 93% 30.04 in 10.0 mi SW 4.6 mph - N/A   Clear
7:50 AM 32.0 °F - 28.4 °F 87% 30.06 in 10.0 mi Calm Calm - N/A   Clear
8:50 AM 37.4 °F 32.1 °F 28.4 °F 70% 30.06 in 10.0 mi South 6.9 mph - N/A   Clear
9:50 AM 44.6 °F 40.7 °F 33.8 °F 66% 30.07 in 10.0 mi South 6.9 mph - N/A   Clear
10:50 AM 51.8 °F - 33.8 °F 50% 30.05 in 10.0 mi South 10.4 mph - N/A   Clear
11:50 AM 55.4 °F - 33.8 °F 44% 30.04 in 10.0 mi South 12.7 mph - N/A   Clear
12:50 PM 59.0 °F - 35.6 °F 42% 29.99 in 10.0 mi South 12.7 mph 17.3 mph N/A   Clear
1:50 PM 62.6 °F - 33.8 °F 34% 29.93 in 10.0 mi South 9.2 mph - N/A   Clear
2:50 PM 64.4 °F - 33.8 °F 32% 29.91 in 10.0 mi SSE 9.2 mph 20.7 mph N/A   Clear
3:50 PM 64.4 °F - 33.8 °F 32% 29.90 in 10.0 mi SSE 11.5 mph - N/A   Clear
4:50 PM 64.4 °F - 35.6 °F 34% 29.90 in 10.0 mi SSE 11.5 mph - N/A   Clear
8:15 PM 53.6 °F - 35.6 °F 51% 29.91 in 10.0 mi South 3.5 mph - N/A   Clear
8:35 PM 53.6 °F - 35.6 °F 51% 29.91 in 10.0 mi South 4.6 mph - N/A   Clear
8:55 PM 51.8 °F - 35.6 °F 54% 29.91 in 10.0 mi South 5.8 mph - N/A   Clear
9:15 PM 51.8 °F - 35.6 °F 54% 29.92 in 10.0 mi South 4.6 mph - N/A   Clear
9:35 PM 51.8 °F - 35.6 °F 54% 29.92 in 10.0 mi South 4.6 mph - N/A   Clear
9:55 PM 50.0 °F - 35.6 °F 58% 29.92 in 10.0 mi Calm Calm - N/A   Clear
10:15 PM 50.0 °F - 35.6 °F 58% 29.92 in 10.0 mi South 3.5 mph - N/A   Clear
10:35 PM 48.2 °F - 35.6 °F 62% 29.92 in 10.0 mi South 3.5 mph - N/A   Clear
10:55 PM 48.2 °F - 35.6 °F 62% 29.91 in 10.0 mi SSW 4.6 mph - N/A   Clear
11:15 PM 48.2 °F - 35.6 °F 62% 29.91 in 10.0 mi SSW 5.8 mph - N/A   Clear
11:35 PM 48.2 °F - 35.6 °F 62% 29.91 in 10.0 mi SSW 8.1 mph - N/A   Clear
11:55 PM 50.0 °F - 35.6 °F 58% 29.89 in 10.0 mi South 8.1 mph - N/A   Clear